sat.trackr.live / text

‹ back to catalog

YAOGAN-30 09C

NORAD 48425 · 2021-039C

PAYLOAD ACTIVE UNKNOWN

§ Identity

Operator
Country
PRC
Launch date
2021-05-06
Launch site
XICLF
Launch vehicle
Mass (kg)
RCS (m²)

External: N2YO · Heavens-Above · Gunter

§ Orbital elements

Epoch: 2026-05-25T04:43:22.738080Z

Period
95.84 min
Inclination
34.9937°
Eccentricity
0.0002870
Mean motion
15.02473957 rev/d
Perigee alt
557.3 km
Apogee alt
561.3 km
Semi-major
6,937.4 km
B*
1.3242e-4
RAAN
170.8488°
Arg perigee
245.7028°
Mean anomaly
114.3381°
Rev number
27,609

§ Raw data

YAOGAN-30 09C1 48425U 21039C   26145.19679095  .00001764  00000+0  13242-3 0  99942 48425  34.9937 170.8488 0002870 245.7028 114.3381 15.02473957276099

JSON: /api/v1/satellites/48425 · /tle

For live sub-satellite position, see the globe view (requires WebGL).

§ Visibility from observer

Set your observer location to see the next 7 days of passes ≥ 10°. The values pass through the URL so the page stays shareable.

No JS? Fill the form by hand. The geolocation button needs JavaScript.